Wind_Speed
63 62 63 65 65 62 59 57 57 58 58 58 57 56 58 58 59 62 65 64 62 59 59 60 58 55 55 60 64 61 56 53 54 53 52 53 54 55 55 54 51 47 44 42 40 42 45 45 41 45 51 50 49 50 46 45 44 43 43 39 36 34 32 31 30 31 32 34 36 37 36 34 33 32 32 33 33 33 33 32 32 32 32 31 30 28
64 64 67 67 64 60 58 57 57 58 59 58 56 55 55 56 57 59 61 61 58 56 57 58 55 52 53 58 61 58 53 50 49 48 47 49 52 53 53 50 47 44 43 43 44 45 46 46 47 51 54 53 53 54 51 49 47 46 44 42 41 39 36 33 32 33 34 36 37 37 36 35 34 33 34 34 34 33 33 32 32 33 33 32 30 29
66 68 69 66 62 61 60 59 59 58 58 57 55 53 52 53 55 56 57 57 56 53 54 55 51 49 52 56 57 55 51 48 48 47 47 49 51 51 51 48 44 43 44 45 44 44 43 43 46 50 53 53 53 53 51 49 49 49 48 46 45 43 40 38 37 37 38 39 39 39 38 37 36 35 36 35 34 34 34 33 33 34 34 33 31 30
67 69 69 65 62 62 61 60 58 57 56 55 53 51 50 53 53 53 56 56 53 51 52 52 47 47 52 53 53 52 49 47 47 48 48 49 50 50 49 46 42 41 43 44 42 41 42 42 43 47 52 53 53 52 49 48 48 49 50 49 48 46 45 44 42 41 42 42 41 40 39 38 37 37 37 36 35 35 35 35 35 34 34 34 33 32
66 68 66 63 62 62 60 58 56 54 53 52 50 49 50 52 52 53 56 53 49 49 51 49 44 47 52 51 50 50 47 46 46 48 49 48 48 49 48 43 40 41 42 42 41 39 39 40 40 43 50 53 54 53 50 48 49 50 50 50 50 49 48 48 46 45 45 44 42 41 40 39 38 38 39 38 37 37 37 37 37 36 35 36 36 35
65 64 61 61 59 58 56 55 53 51 50 49 48 48 50 51 51 53 55 51 48 49 49 46 44 48 50 49 49 48 46 46 47 49 49 48 47 47 46 42 41 43 43 42 40 39 38 37 38 41 49 55 55 54 53 52 51 51 50 50 50 50 49 48 48 48 47 46 44 43 42 41 39 39 39 40 40 40 40 40 40 38 38 38 38 37
61 59 57 57 55 53 52 51 50 48 47 47 47 48 49 51 50 52 53 49 47 48 47 45 44 47 49 48 48 47 46 47 48 49 49 48 47 46 44 42 44 45 44 42 40 38 34 33 38 43 51 58 59 57 57 55 53 50 48 48 49 49 48 47 48 49 48 47 46 46 44 42 40 40 40 41 41 42 42 43 42 41 39 39 39 38
57 54 53 53 50 49 48 47 47 45 45 46 48 48 48 50 50 50 50 47 46 45 44 44 44 45 48 49 47 46 46 47 48 48 48 46 46 45 44 43 45 46 44 41 39 37 34 36 44 49 52 58 61 59 58 57 55 51 48 48 48 49 48 45 45 47 48 48 48 48 47 46 44 42 41 41 41 42 42 43 43 42 41 41 41 40
52 50 50 48 45 46 46 45 44 43 44 47 47 46 47 48 48 47 47 45 44 42 41 42 42 44 47 48 46 45 46 47 48 47 45 45 46 45 44 44 46 47 44 41 39 37 39 45 49 49 48 53 58 60 60 59 58 55 51 50 50 51 50 47 44 44 45 47 48 48 48 47 47 46 44 43 42 42 42 43 43 43 42 42 42 41
48 48 47 43 43 45 45 43 41 41 44 46 45 44 45 46 45 45 44 43 42 40 40 41 40 42 45 46 45 44 45 46 46 45 43 43 45 45 44 45 46 45 44 41 38 39 43 47 48 46 46 49 53 57 61 62 61 59 55 53 53 54 54 51 48 44 43 44 44 44 45 45 46 46 46 45 44 43 43 43 43 43 43 42 41 40
47 46 43 42 44 44 43 40 40 41 44 44 42 42 43 44 44 43 42 42 40 39 40 40 39 41 42 43 43 43 43 43 43 43 42 42 43 43 43 44 44 44 43 41 40 42 45 46 47 48 48 48 50 53 58 61 62 60 57 54 54 55 55 55 52 50 47 45 44 44 43 43 44 45 45 44 44 43 43 42 42 41 41 40 40 40
46 43 42 43 43 42 41 39 39 40 42 41 40 40 42 43 42 41 41 40 38 37 40 40 38 39 40 40 41 42 42 41 40 41 41 42 42 41 41 43 43 43 43 42 42 44 45 45 46 48 48 48 49 52 55 58 61 60 57 54 53 55 55 56 55 54 53 51 49 48 46 45 45 45 45 44 43 43 42 40 39 39 39 40 41 41
42 41 41 41 41 40 40 39 39 39 40 40 39 40 40 40 39 39 40 39 37 37 40 39 37 38 38 39 41 41 40 38 36 36 38 40 41 40 41 43 43 43 42 43 43 44 44 45 45 47 48 47 48 51 53 55 57 59 57 55 53 53 54 55 56 56 56 54 53 52 51 48 47 46 45 44 43 43 42 41 41 41 41 41 41 41
41 40 40 40 40 40 40 40 39 39 39 39 38 38 38 38 38 39 39 38 36 37 39 38 37 37 38 39 40 39 37 35 33 33 36 38 39 40 42 42 42 41 42 43 43 43 43 44 44 46 48 48 48 49 52 53 55 56 56 55 54 53 52 52 53 54 54 54 53 53 52 50 49 47 46 46 45 44 44 45 45 45 45 44 42 41
41 40 40 40 41 40 40 39 38 37 37 37 37 36 36 36 37 38 38 37 37 38 39 37 36 37 38 39 39 37 35 33 33 34 36 37 38 39 40 41 40 40 42 43 42 41 42 43 45 46 48 49 49 50 51 52 53 54 55 55 54 52 50 50 51 51 51 51 51 50 49 48 47 47 47 47 47 47 48 48 48 48 47 46 45 43
40 40 40 40 39 39 39 38 35 35 35 35 35 35 36 37 36 36 36 36 37 38 39 37 35 36 38 38 35 32 32 32 32 33 33 34 36 37 38 39 39 40 41 40 40 41 43 44 46 47 48 50 50 51 51 51 52 53 54 54 53 51 49 48 48 48 47 47 47 46 45 45 45 46 46 47 47 48 48 48 47 47 48 47 46 46
39 39 39 37 37 38 38 34 32 33 33 33 33 35 36 36 34 35 35 35 36 37 37 36 35 36 37 34 29 27 29 30 30 30 31 32 34 34 35 34 35 37 39 39 40 42 44 44 45 46 47 48 49 50 50 50 50 51 52 52 52 51 48 46 45 45 44 44 44 44 44 44 44 44 44 45 45 45 46 46 46 45 45 45 44 42
38 39 38 35 36 38 36 32 31 32 32 32 33 34 34 33 32 34 34 34 35 35 35 33 33 35 33 29 26 26 27 27 26 26 28 30 29 28 28 30 33 36 38 39 41 42 42 42 42 44 46 47 48 49 50 50 50 51 51 51 50 49 47 44 44 44 44 44 44 44 44 45 45 44 44 44 44 44 45 46 46 45 44 42 41 39
37 39 37 35 36 37 35 32 31 31 31 32 32 31 31 31 31 33 33 33 34 34 33 31 31 32 30 28 29 28 28 26 23 21 24 26 22 18 20 23 27 32 36 38 38 38 38 39 40 43 45 47 48 49 49 49 49 50 51 51 49 47 45 43 43 44 44 45 45 45 45 45 46 46 45 45 46 46 46 46 46 45 44 42 41 39
37 38 38 36 37 37 36 34 32 31 32 33 31 30 30 30 30 31 32 32 34 35 34 33 32 31 29 30 31 29 28 26 25 23 23 23 22 23 21 20 24 29 34 35 33 33 34 37 40 42 44 45 47 48 49 48 47 48 48 47 46 44 43 42 43 43 43 44 45 45 45 46 47 48 47 47 46 46 46 46 46 45 43 42 41 40
37 39 38 36 36 38 37 34 32 32 33 32 31 30 31 30 30 31 32 33 34 34 33 32 31 31 31 31 31 30 29 29 31 31 28 26 27 33 35 31 30 31 32 33 32 30 30 32 37 40 43 44 45 47 47 46 45 44 42 42 41 41 42 41 41 40 39 41 44 45 45 47 48 50 51 50 49 47 46 46 45 45 44 43 43 43
36 38 38 36 35 37 36 34 32 33 34 33 31 31 31 30 30 31 32 33 34 34 33 32 31 32 33 33 32 31 30 32 34 31 29 28 31 37 41 38 37 37 37 38 37 34 30 29 32 37 41 42 43 43 42 40 38 38 36 34 33 35 39 41 40 38 38 40 44 45 46 47 49 51 52 53 52 51 49 47 46 46 45 45 45 45
36 38 39 37 35 35 35 33 33 34 34 33 32 31 30 30 30 31 32 33 34 34 34 34 33 33 33 33 33 32 31 31 31 27 23 26 32 39 41 39 39 41 41 41 38 36 35 32 32 35 38 39 38 37 35 33 31 30 29 27 26 26 32 37 38 37 40 43 44 45 45 46 47 47 45 44 44 43 44 44 45 46 47 47 47 48
35 37 39 38 35 34 33 34 34 33 33 33 32 32 30 30 31 32 32 33 34 34 34 34 34 34 34 35 34 33 32 30 27 23 21 23 31 38 39 38 41 42 42 42 40 39 39 35 31 32 34 35 34 33 33 33 30 28 26 27 30 31 33 35 36 35 36 38 39 41 42 44 46 45 42 38 37 36 38 41 43 45 48 49 49 49
37 37 38 38 36 33 33 33 33 33 33 32 32 32 31 30 31 32 33 33 33 33 34 34 34 35 35 36 35 34 33 30 27 25 25 27 32 37 39 40 43 44 44 44 43 42 42 38 33 32 33 34 33 31 34 37 35 30 27 27 28 31 34 35 33 30 29 31 32 34 36 39 42 42 41 39 40 40 41 42 43 44 47 49 49 49
41 39 38 39 38 34 33 33 34 35 34 32 31 31 31 31 31 31 33 33 33 34 33 33 34 36 36 36 35 35 34 35 34 34 35 32 31 34 40 44 45 46 46 46 44 44 44 42 38 37 38 38 37 34 35 38 38 33 31 29 27 27 31 32 29 29 28 26 25 26 30 34 36 36 37 38 40 41 43 44 45 45 47 48 48 47
45 42 40 41 40 36 34 33 34 36 35 32 31 31 32 32 31 31 33 34 34 34 34 34 35 37 37 37 37 36 38 40 41 41 41 39 35 35 42 48 49 48 48 47 45 44 45 46 46 45 45 44 43 40 38 39 39 36 35 33 28 25 26 26 27 31 32 28 24 23 26 32 35 36 38 40 41 42 44 46 47 48 48 49 51 51
46 44 42 42 41 38 35 33 34 35 34 32 31 32 32 32 32 32 33 34 35 36 36 36 37 38 39 38 38 39 42 45 45 44 45 45 43 43 45 48 50 50 51 49 47 46 48 50 50 50 50 49 48 46 43 41 41 41 40 37 33 29 28 28 28 30 30 31 33 32 31 34 37 38 40 43 45 46 48 48 48 49 50 51 53 53
46 45 44 42 42 40 37 34 33 34 34 33 33 33 33 32 33 33 34 34 36 37 38 39 40 40 39 38 40 42 45 48 49 48 49 49 49 49 48 48 49 52 53 52 50 49 51 52 53 52 52 52 53 52 48 45 44 47 47 44 41 39 38 38 39 39 38 39 41 41 41 42 43 44 46 48 50 50 51 51 51 53 53 53 51 50
47 46 44 43 42 41 39 37 35 35 36 36 35 34 33 34 34 34 35 35 36 37 39 40 41 41 40 40 41 44 48 52 54 54 53 52 52 51 50 49 50 52 54 54 52 51 52 54 55 55 53 53 55 56 54 50 49 50 51 50 49 47 47 48 49 49 50 50 50 50 51 51 52 53 54 55 56 56 56 56 56 56 56 55 53 51
47 46 45 44 43 42 41 40 38 38 38 38 37 37 36 36 36 36 37 36 36 37 39 40 41 41 42 43 43 44 48 53 57 58 57 55 54 53 52 52 52 52 53 54 53 51 51 54 56 56 55 55 56 58 58 55 54 55 55 54 54 53 54 55 55 56 57 57 57 58 57 57 56 55 55 55 55 56 58 58 59 58 56 54 53 52
48 47 46 46 45 44 44 44 42 40 40 39 39 39 38 38 38 38 39 38 37 37 38 40 41 43 44 45 46 47 49 52 55 58 58 57 56 55 55 55 55 54 53 53 53 53 52 54 56 57 58 58 58 59 59 58 57 58 59 59 58 58 58 58 58 59 59 59 60 60 58 58 58 56 55 53 52 52 52 52 53 54 53 51 50 50
49 49 49 48 47 47 47 46 45 43 42 41 41 41 41 40 40 39 39 39 39 39 40 41 43 45 46 47 47 49 50 52 54 57 58 58 56 56 57 58 57 56 56 56 56 56 55 56 58 59 61 61 61 60 60 59 59 60 60 60 60 61 62 60 59 58 58 58 58 58 57 58 58 57 58 56 53 51 49 49 49 51 52 51 51 51
51 51 52 51 50 50 50 49 47 46 45 43 43 43 43 43 42 41 41 41 41 42 43 43 43 44 46 47 48 49 50 51 53 55 58 59 57 56 57 58 59 59 60 61 61 61 60 60 61 62 63 64 63 62 62 62 62 63 63 61 60 60 62 62 62 61 60 59 59 59 59 59 59 58 59 58 57 55 54 54 55 55 56 56 57 58
53 53 54 54 54 53 53 51 49 48 47 46 45 46 45 44 44 44 43 43 44 44 44 45 44 45 45 45 45 45 46 47 50 51 53 57 59 59 58 59 61 63 64 66 66 65 64 64 63 64 65 66 65 65 65 66 66 66 65 64 62 62 63 64 64 63 63 62 62 63 63 63 63 62 62 62 62 62 62 62 61 61 62 63 64 65
54 54 55 56 56 56 54 52 51 51 50 48 48 49 49 48 46 45 44 45 46 47 46 45 45 45 46 45 44 43 40 40 43 46 49 51 54 57 59 61 64 66 67 70 70 69 67 66 65 65 65 66 67 68 68 69 70 70 68 66 66 65 66 67 67 67 67 66 66 66 66 66 67 67 67 67 66 66 67 67 67 67 68 68 69 71
55 55 56 57 57 57 55 54 54 53 52 52 52 53 53 51 49 48 48 49 50 50 49 48 46 45 45 44 45 46 44 41 39 41 46 48 50 51 54 58 65 69 70 70 72 71 69 67 66 66 67 67 68 70 70 71 73 73 71 69 69 70 70 70 70 70 70 70 70 69 69 69 70 71 72 72 72 72 72 73 73 73 74 75 76 77
57 57 57 59 58 58 57 56 56 55 54 56 57 56 55 53 52 53 53 52 52 51 50 50 49 49 48 45 45 47 48 48 45 43 44 47 50 53 53 56 63 71 74 73 72 71 72 71 69 68 70 70 71 72 73 74 75 75 74 73 73 74 74 75 74 74 75 76 75 74 73 73 74 75 76 76 77 77 78 78 79 79 79 80 81 81
59 58 59 60 60 59 59 58 58 57 57 58 59 58 55 54 57 58 55 53 52 52 51 50 49 50 49 47 48 49 50 52 53 51 49 48 51 56 60 60 63 68 72 73 72 72 73 74 73 72 72 73 73 74 75 77 78 78 78 78 78 78 78 78 77 77 79 80 80 79 78 78 79 79 79 80 81 82 82 82 82 83 84 84 84 86
60 59 60 61 61 61 61 61 60 59 60 61 61 60 57 56 59 58 56 54 53 52 51 51 50 50 49 48 50 53 53 54 55 54 54 53 52 54 59 64 66 68 69 69 70 72 74 75 76 76 76 76 77 77 77 78 79 79 80 81 81 82 82 82 81 81 82 83 83 83 83 83 83 83 83 83 84 85 85 86 86 87 87 87 89 90
61 61 61 62 63 63 63 63 62 62 62 63 64 63 61 60 60 60 59 58 56 53 53 52 52 53 53 51 51 53 55 56 56 56 56 56 54 52 54 59 65 69 70 68 65 66 69 72 74 76 78 79 80 80 81 81 80 81 81 82 83 84 84 85 85 86 86 87 86 86 86 85 85 86 86 86 87 87 88 89 90 90 91 93 93 92
63 64 64 64 65 65 66 66 65 65 65 66 67 67 65 64 64 64 63 62 60 58 57 55 55 56 57 56 55 56 57 58 59 60 60 58 57 57 58 60 64 67 68 65 61 59 62 65 69 73 75 78 79 80 81 83 83 84 84 84 85 86 87 88 88 88 89 89 88 88 87 87 87 88 89 89 90 90 91 92 93 94 94 94 94 92
64 65 66 67 67 68 68 68 68 68 68 68 69 69 69 68 67 66 65 64 63 63 62 60 59 59 59 60 60 61 62 62 63 63 63 62 62 62 62 63 64 66 66 65 63 61 60 61 63 67 71 74 77 79 81 82 84 86 87 87 87 87 88 89 89 89 89 89 89 89 89 90 90 90 91 92 92 93 94 95 96 96 95 94 93 92
63 65 66 68 69 69 69 69 70 70 70 70 71 71 71 71 70 70 69 67 65 64 64 64 63 62 62 63 64 66 69 69 66 65 65 65 66 66 67 68 68 69 70 70 69 68 66 64 64 64 66 70 72 75 77 79 81 83 85 86 87 88 89 89 90 90 91 92 92 92 93 93 93 93 93 93 94 94 95 95 95 95 94 94 93 92
59 62 65 68 69 70 70 71 71 72 72 72 72 73 73 73 73 73 73 72 70 67 66 65 65 65 65 66 68 71 73 72 69 67 68 70 71 72 72 73 73 73 73 72 72 71 70 70 70 70 69 69 70 71 73 74 76 77 79 81 82 84 85 86 87 88 90 91 92 92 92 92 92 92 92 92 92 92 92 92 92 92 91 90 89 88
56 59 63 66 69 71 72 72 73 73 73 74 74 74 75 75 75 76 76 76 75 73 70 69 68 68 68 69 70 73 75 74 72 72 74 75 75 76 76 76 76 76 75 75 74 74 73 72 73 73 74 73 73 73 73 74 74 75 76 77 78 78 80 81 82 83 84 85 86 86 87 88 88 89 89 89 89 89 89 88 88 88 87 87 86 86
54 56 59 63 68 71 73 74 74 75 75 75 76 76 76 77 77 77 78 78 78 77 75 74 72 71 71 72 72 73 75 76 76 77 77 77 77 77 78 78 78 78 79 79 79 78 77 76 75 75 75 75 75 75 75 76 76 77 77 77 77 78 79 81 82 82 82 83 83 84 84 85 85 86 86 86 86 86 86 86 87 86 87 86 86 86
52 54 56 59 64 68 71 74 75 76 77 78 78 78 78 78 79 79 79 80 80 80 79 78 76 76 75 74 74 74 75 77 78 78 77 77 77 77 78 78 79 79 79 79 80 80 80 79 78 77 77 76 76 76 77 77 78 78 79 79 79 80 82 83 83 83 84 84 84 85 85 85 85 86 86 86 86 87 87 87 87 87 88 88 88 88
50 53 55 58 61 65 69 72 75 78 80 81 81 81 81 81 81 81 81 81 81 82 82 81 80 80 79 78 77 76 76 76 75 75 76 77 78 79 79 79 79 80 80 80 80 80 80 80 80 79 79 79 79 79 80 79 79 80 80 80 81 82 83 84 85 85 85 86 86 86 87 87 87 88 88 88 89 89 89 89 89 89 90 91 91 91
47 50 53 56 59 62 66 69 73 77 80 82 83 84 84 84 84 84 84 84 84 84 84 84 84 83 82 82 81 79 78 77 75 74 76 78 79 79 79 80 80 81 81 82 82 82 81 81 81 81 81 82 83 83 83 82 82 82 82 82 83 84 84 85 86 86 86 87 87 88 88 89 89 90 90 90 90 91 91 91 91 91 92 92 93 93
43 47 50 53 56 59 62 66 69 73 77 80 82 83 85 86 86 87 87 86 86 86 86 86 86 85 85 84 84 83 82 81 78 77 78 79 79 79 79 79 79 80 80 81 82 82 82 82 82 82 83 84 84 85 85 84 84 84 84 85 86 86 86 86 87 87 87 88 88 89 89 90 91 91 91 91 91 92 92 93 93 93 93 93 94 95
Wind_Direction
261 262 262 260 260 261 262 263 264 265 265 264 263 262 261 260 258 257 257 257 256 255 254 253 250 248 247 249 251 251 249 247 250 252 252 251 250 249 248 248 247 247 246 244 237 229 227 225 215 216 225 228 232 237 243 251 256 257 257 256 256 259 262 262 259 257 260 264 268 273 273 273 274 274 276 280 285 290 291 291 292 295 299 303 307 312
261 261 260 260 262 264 265 265 265 265 265 265 264 262 260 258 255 254 255 255 254 252 251 251 249 246 245 248 250 251 248 244 244 247 248 248 247 247 247 246 245 244 242 241 237 232 232 232 227 224 226 228 233 238 243 251 256 257 256 256 256 258 259 257 255 254 259 263 266 268 267 269 272 272 276 281 284 287 289 290 291 294 298 301 305 308
259 259 260 262 264 265 265 265 265 266 266 265 263 260 257 254 252 252 252 252 252 250 249 249 248 245 245 247 249 250 247 241 240 241 242 245 246 246 245 244 242 242 242 241 238 235 233 231 228 226 228 230 235 240 244 249 253 254 255 257 258 259 257 256 254 255 259 262 265 266 265 267 269 269 275 279 282 285 287 289 290 292 296 299 302 305
258 259 260 263 264 264 265 265 266 265 264 262 260 257 252 250 250 250 250 249 250 249 248 248 246 245 245 246 248 248 245 241 239 238 239 242 244 245 245 244 242 241 241 242 240 237 234 232 229 225 225 228 233 237 239 244 249 251 252 254 256 257 256 255 255 255 257 260 263 264 263 263 265 268 273 278 281 284 286 287 288 291 294 297 299 301
257 259 261 262 263 264 265 265 264 263 261 259 256 252 249 249 248 248 249 248 248 248 247 247 244 244 245 245 246 247 245 242 240 238 238 239 243 245 246 246 243 240 239 239 239 237 234 232 230 225 222 225 231 234 235 239 244 248 251 254 255 255 255 254 253 253 255 256 259 261 261 262 265 270 274 277 280 283 284 285 286 290 293 296 298 300
257 259 260 261 261 263 263 263 261 259 257 255 252 249 248 248 247 248 249 248 246 246 247 246 243 243 246 245 245 245 244 241 239 239 237 237 239 242 244 244 241 239 238 236 235 233 232 232 231 226 223 224 227 230 233 237 241 245 249 252 254 255 255 254 252 252 253 254 257 260 261 263 268 271 273 275 278 280 281 283 286 290 293 296 298 299
256 257 258 260 261 261 261 259 257 255 253 251 249 247 246 247 247 248 249 248 246 246 247 246 243 243 245 244 243 242 242 241 239 238 237 236 237 239 240 240 239 239 238 236 234 232 231 233 234 228 224 225 227 229 232 235 239 242 247 250 251 254 256 256 253 252 252 253 256 259 261 265 268 269 270 272 274 277 280 282 285 289 292 295 297 298
254 256 257 258 259 259 258 256 254 252 250 249 247 246 247 248 248 249 250 250 248 248 247 247 244 243 243 243 242 240 239 239 238 237 236 236 236 237 237 236 237 238 238 236 234 231 224 222 228 229 225 225 227 229 233 235 237 240 244 248 251 253 257 259 257 255 254 255 256 259 262 265 268 268 269 270 272 275 278 281 284 287 290 292 294 296
253 254 254 256 257 256 254 253 251 250 249 247 247 247 248 249 250 250 252 251 250 249 247 246 245 243 243 242 241 239 237 237 237 237 236 235 234 235 235 234 235 237 238 236 234 231 223 218 223 229 228 228 228 229 233 236 238 239 243 247 251 253 256 259 260 258 256 256 258 260 263 265 267 267 269 271 272 274 276 279 283 286 288 290 293 295
250 251 253 254 254 253 252 251 249 249 248 248 248 248 250 251 251 251 251 251 249 247 245 244 242 242 242 241 240 237 237 237 237 236 235 234 234 235 235 235 236 237 237 236 232 230 228 225 226 229 230 231 230 230 233 236 239 239 241 245 248 252 255 257 258 258 258 259 260 262 265 267 267 267 268 272 273 275 277 280 283 285 287 290 293 294
247 249 251 251 251 251 251 250 248 248 249 249 249 250 251 251 251 250 249 248 246 244 243 241 238 238 239 239 238 236 235 236 236 235 233 232 234 235 235 235 236 236 236 234 230 228 229 228 228 230 232 233 232 232 234 237 239 240 241 242 244 248 252 255 256 257 259 261 263 265 266 268 269 268 270 272 275 277 279 281 283 286 288 291 293 293
246 248 249 250 250 251 251 250 248 249 250 251 250 250 250 251 250 249 247 246 244 242 240 238 235 235 235 235 235 233 233 233 234 235 233 231 231 232 233 234 234 234 234 232 230 228 230 230 230 231 233 234 233 233 235 237 239 242 243 243 242 244 248 252 255 257 259 261 263 266 267 268 270 270 271 272 274 277 279 281 284 286 288 290 291 291
246 247 248 249 250 250 250 249 248 248 249 250 250 250 250 251 250 248 246 244 240 238 238 235 232 231 231 232 233 233 232 231 231 233 233 230 229 229 230 231 232 232 232 232 232 231 231 231 232 232 234 235 235 235 236 237 240 243 245 245 245 245 247 251 254 256 259 261 263 265 267 269 270 271 271 272 273 276 278 280 282 284 286 287 288 290
245 244 245 247 248 248 249 248 248 247 248 250 250 251 251 251 249 246 244 241 236 235 236 233 230 229 229 230 232 233 231 229 226 227 230 229 228 228 229 230 231 231 232 232 233 233 233 233 233 234 235 237 237 236 237 238 240 243 246 247 247 248 250 252 254 257 258 260 262 265 267 269 271 271 271 272 273 276 278 279 280 282 283 284 286 287
243 243 244 245 246 248 248 249 249 249 250 251 252 253 252 249 246 244 242 239 234 232 233 230 228 228 228 230 232 232 229 226 223 224 227 228 228 229 229 230 230 230 231 232 233 234 235 234 234 234 236 238 238 238 239 240 241 243 246 248 249 250 253 254 254 257 259 260 262 265 267 270 271 272 272 273 274 276 278 279 280 280 282 283 283 285
242 243 244 245 246 249 249 250 251 251 251 252 253 253 251 247 243 241 240 237 234 232 232 229 226 226 229 232 233 234 231 226 223 224 226 228 228 229 231 231 231 231 232 233 233 234 234 235 235 235 236 238 238 239 241 242 242 244 246 249 250 251 254 256 256 258 260 261 262 265 267 270 272 274 275 275 276 276 277 278 278 279 280 281 282 284
241 244 246 247 248 250 250 250 251 252 252 252 252 251 250 248 245 242 239 236 234 233 233 229 224 225 229 232 232 233 233 229 225 225 225 227 228 229 231 233 234 235 235 234 233 233 234 235 236 237 238 239 240 241 242 243 244 245 247 250 251 252 254 256 255 255 258 260 261 264 267 270 273 275 276 275 275 274 274 275 276 278 280 281 283 284
240 244 246 247 249 251 251 249 249 250 251 251 250 250 251 250 247 242 238 236 234 233 233 230 226 226 227 227 227 226 227 226 224 225 228 228 229 233 235 237 239 239 237 236 236 237 238 238 239 240 240 241 242 243 243 243 244 246 248 250 251 253 255 255 252 252 255 258 260 263 266 270 273 274 275 275 274 273 271 271 273 274 277 279 280 281
240 244 244 244 246 249 248 245 244 246 248 249 248 249 250 249 246 242 237 233 232 230 229 227 226 227 225 220 219 219 217 215 210 218 234 233 225 229 244 251 253 251 247 242 241 242 243 244 243 243 243 243 244 244 244 244 244 247 249 250 251 253 254 253 251 251 255 259 262 264 267 270 272 274 275 275 274 273 271 270 270 272 273 275 276 277
240 244 244 243 244 246 245 242 241 243 245 246 246 245 245 244 242 240 236 231 229 228 225 222 220 221 221 217 215 213 210 205 194 197 221 228 207 193 206 233 248 254 255 251 247 246 246 246 246 245 245 246 246 245 245 244 245 247 249 250 252 253 253 254 254 255 259 263 265 267 269 270 271 271 272 272 273 272 271 270 270 271 272 273 274 274
240 244 245 243 244 247 247 244 242 243 244 245 245 243 241 240 238 236 232 228 227 227 225 223 219 217 215 213 213 210 206 199 191 192 205 213 203 188 187 202 220 233 242 243 238 234 236 243 247 247 246 246 247 247 245 245 246 247 249 251 254 256 256 256 257 258 262 264 267 270 271 270 270 271 270 270 270 271 272 272 272 272 272 272 273 273
238 244 246 245 244 247 248 247 245 244 244 244 243 242 240 238 236 234 231 227 225 223 221 219 216 215 214 212 210 208 204 198 195 198 202 203 204 197 190 195 208 217 225 229 227 219 217 229 240 245 245 245 247 249 249 248 248 248 249 251 258 263 261 259 259 260 262 264 268 273 274 275 276 276 276 276 275 275 275 274 273 272 271 272 273 274
235 243 247 246 245 246 247 246 245 244 244 243 242 241 240 237 235 232 229 227 225 221 218 215 213 212 212 212 210 205 202 198 195 200 205 205 206 202 197 200 208 216 222 226 222 213 211 219 230 241 246 244 244 248 251 252 251 250 247 240 237 244 251 256 259 261 262 265 269 273 274 276 277 276 277 277 276 277 276 275 273 272 273 273 274 275
234 242 248 247 245 245 245 245 244 243 244 244 243 241 239 237 234 232 229 227 226 222 219 216 213 211 209 209 208 204 199 194 193 197 204 213 213 207 204 208 212 217 223 224 218 211 210 215 222 234 242 239 236 241 246 245 243 242 241 235 228 229 239 251 259 262 265 267 270 273 274 273 272 271 272 269 266 267 269 271 272 274 274 275 277 278
231 237 244 246 242 241 242 243 244 243 242 242 243 242 239 236 234 232 230 227 225 223 220 217 213 212 210 207 206 203 196 188 189 196 201 212 220 217 215 217 217 219 223 222 218 215 214 213 214 222 231 228 226 233 239 238 234 232 234 238 236 235 241 252 259 262 266 270 273 274 274 271 269 268 268 267 264 264 264 267 271 273 275 277 280 282
228 232 238 243 241 237 238 240 242 242 240 239 241 241 239 237 234 231 229 226 223 222 220 217 214 212 210 207 204 201 194 187 188 193 195 202 214 221 223 222 220 221 222 220 220 220 219 215 212 216 221 220 219 225 230 233 231 228 230 236 237 237 242 249 256 259 260 268 275 271 264 262 262 263 264 264 264 265 264 264 268 272 275 279 282 282
228 230 234 240 240 236 235 238 241 243 242 239 239 239 238 236 234 230 228 225 222 220 218 217 215 213 211 207 204 200 193 190 191 193 194 197 204 215 223 224 222 220 219 217 218 220 221 217 214 217 219 219 220 223 226 229 230 225 225 228 229 238 244 243 250 259 259 257 255 252 252 253 254 256 259 261 262 262 262 264 266 269 272 275 277 278
229 230 232 236 239 236 233 235 240 243 243 240 238 238 238 237 235 232 228 225 222 220 217 215 214 214 212 207 203 200 194 192 195 197 197 201 206 212 220 224 222 218 216 216 217 218 220 218 218 221 223 221 221 223 225 227 227 224 223 223 224 232 236 229 231 243 247 243 239 241 247 252 252 252 255 260 263 262 263 264 264 265 269 272 274 276
229 230 231 234 237 237 232 231 236 240 241 241 239 238 237 237 236 233 229 224 222 220 218 217 215 214 213 210 206 202 196 195 198 201 201 205 209 212 217 221 221 218 217 217 217 217 219 219 219 223 226 224 222 223 225 227 225 225 227 228 229 234 237 236 235 238 242 244 244 247 251 253 254 256 258 261 265 265 265 266 266 267 270 273 274 275
229 229 231 233 236 237 234 230 230 235 238 239 238 236 234 233 232 229 226 223 221 220 219 219 218 215 213 210 209 207 202 199 201 203 204 207 211 214 216 219 220 220 219 219 219 219 220 220 220 223 225 226 225 226 229 230 228 227 230 233 235 238 241 244 245 246 249 251 252 254 256 257 259 261 262 263 264 265 265 266 267 268 271 273 274 274
230 229 230 231 233 234 235 232 228 231 234 236 236 235 232 229 228 225 223 220 220 220 219 219 220 218 215 211 209 209 208 205 205 205 206 209 214 217 219 220 221 222 221 221 222 222 221 222 223 225 226 227 228 230 232 234 231 230 232 235 237 240 243 246 249 251 254 256 256 256 258 259 261 261 262 262 263 264 265 266 267 268 270 272 274 275
230 230 230 231 231 232 234 234 231 229 231 233 233 234 232 230 228 226 223 220 218 219 220 219 219 219 218 215 211 209 210 210 210 210 210 212 215 217 219 221 222 222 222 222 223 223 223 225 227 228 228 228 229 231 233 235 235 234 235 237 237 239 243 246 250 253 255 258 260 260 260 260 260 259 258 259 260 263 265 266 267 269 269 270 273 277
230 231 231 230 231 232 232 234 233 231 229 229 230 231 232 231 229 228 226 224 221 219 219 219 219 219 219 218 216 214 212 212 212 214 214 215 217 218 218 220 222 223 223 223 223 224 224 225 228 229 230 229 230 231 234 235 237 237 238 239 240 241 244 247 250 252 253 255 257 259 260 260 260 259 257 256 257 259 260 260 263 267 269 269 272 276
230 232 232 231 230 230 230 231 233 232 230 228 228 229 231 232 231 229 227 226 224 222 220 218 219 221 221 221 221 220 219 217 215 215 216 218 219 220 219 220 222 225 226 225 224 224 225 227 228 229 230 231 232 233 235 237 238 239 239 240 243 245 246 248 250 252 252 253 253 255 256 258 258 258 257 255 254 254 255 256 258 262 266 267 269 271
230 232 233 233 232 231 231 231 232 232 231 230 230 230 230 231 231 231 230 227 225 224 223 221 219 220 221 222 224 225 226 226 223 222 221 221 221 220 221 222 223 225 228 228 226 225 227 229 230 230 230 232 234 235 236 237 238 239 240 241 244 246 248 249 251 253 254 254 254 254 255 256 257 256 256 256 255 254 255 256 257 259 262 265 267 269
229 231 233 235 234 233 233 232 231 232 231 231 231 231 230 228 228 231 233 231 228 225 225 225 223 222 221 222 223 223 223 225 226 227 227 225 223 222 222 224 225 225 227 229 228 227 227 229 232 233 233 234 236 237 238 240 239 238 239 242 245 247 249 250 251 253 254 255 256 255 256 256 257 255 255 255 256 256 256 257 258 260 262 264 267 269
227 229 232 234 235 235 234 233 232 232 232 231 231 231 231 230 228 229 231 231 230 228 227 226 226 225 224 223 223 221 217 216 220 226 229 230 228 226 225 228 229 228 228 229 229 228 228 230 232 235 236 237 238 239 240 241 242 239 239 242 246 248 249 250 251 253 254 255 255 255 256 256 257 256 255 255 256 257 258 258 260 261 263 265 267 270
226 227 229 232 234 235 235 234 234 233 233 233 232 233 234 233 231 230 230 231 231 231 230 229 229 228 226 223 222 223 219 215 216 222 227 230 232 230 229 232 233 231 228 227 228 229 230 231 233 234 235 238 240 241 241 242 243 243 242 243 246 249 250 250 251 253 254 254 254 254 255 256 257 257 256 256 257 258 259 260 261 263 265 267 269 271
225 226 227 230 232 233 234 234 234 234 234 235 235 235 235 235 236 237 236 235 234 234 234 234 232 232 230 225 221 221 220 217 217 220 225 228 231 232 232 233 235 235 232 228 228 229 230 232 233 234 235 236 239 242 243 243 244 245 245 245 246 248 250 252 252 253 255 256 256 256 256 257 257 257 258 259 260 260 261 262 264 266 268 270 271 273
226 226 227 229 230 231 232 233 233 234 235 237 238 238 236 235 237 240 240 239 238 237 236 236 237 237 236 232 226 222 221 219 218 220 225 228 230 231 233 234 236 238 238 233 229 229 231 232 234 236 237 238 239 241 243 245 246 246 246 246 247 248 250 251 253 254 256 257 258 259 259 259 259 259 259 260 261 262 263 264 266 267 269 270 272 274
225 225 226 228 229 230 230 232 232 233 234 236 239 240 239 236 236 238 240 241 242 241 238 237 239 240 239 238 235 230 226 223 220 220 223 226 228 229 231 235 237 239 242 240 235 233 233 234 235 237 238 239 240 242 243 245 246 246 247 247 248 248 249 251 252 254 255 257 259 260 261 261 261 261 261 261 262 262 263 265 267 268 269 271 273 274
224 225 225 227 228 229 230 231 232 232 233 234 237 240 241 240 238 238 239 240 241 242 240 238 238 239 238 238 238 237 234 230 227 225 226 228 231 232 234 237 239 241 245 247 247 243 240 239 238 239 239 240 240 241 242 243 244 245 246 247 248 249 250 251 252 254 255 257 258 260 260 261 261 262 262 263 263 263 264 265 267 269 271 272 273 273
224 225 225 226 228 229 230 231 232 232 233 234 235 238 240 242 242 242 241 240 239 240 241 240 238 237 236 236 237 238 239 237 235 234 234 234 235 236 238 240 242 243 246 251 253 252 249 246 243 242 242 242 242 242 242 243 244 245 246 247 248 249 250 251 252 253 254 255 257 258 259 260 262 263 263 264 264 265 266 267 268 269 271 271 272 273
224 225 226 227 229 230 231 232 233 233 234 234 235 236 239 241 243 245 245 244 242 241 240 240 238 236 235 236 236 237 239 240 240 240 241 241 240 239 240 242 243 245 248 252 254 254 254 252 250 247 245 245 245 246 246 246 247 248 248 249 249 250 251 252 252 253 254 255 256 258 259 260 262 263 264 265 266 266 267 268 269 270 270 271 272 273
226 225 226 228 229 231 232 233 234 235 236 236 236 237 238 240 241 243 245 246 246 244 242 241 240 238 236 236 236 237 240 242 243 243 243 244 244 244 244 246 247 249 250 251 252 253 253 253 253 253 251 250 249 249 249 250 251 252 252 252 252 253 253 254 254 255 255 256 257 258 259 260 261 262 263 264 265 265 266 267 268 269 270 271 271 272
228 227 226 227 229 231 233 234 236 236 237 238 238 238 239 239 240 242 243 245 246 247 246 244 242 240 239 238 237 238 241 243 244 244 244 244 245 246 247 249 250 252 253 254 254 254 254 254 255 255 255 254 254 253 253 254 254 255 255 255 256 256 256 256 257 257 257 258 258 259 259 260 261 262 263 264 265 265 267 267 268 269 270 271 271 272
231 229 228 228 229 231 233 234 236 238 239 239 240 240 240 241 241 242 243 244 246 247 248 247 246 245 243 242 240 240 241 243 243 243 244 244 245 246 247 248 249 250 252 253 255 255 256 257 257 257 257 257 257 256 256 257 257 257 258 258 258 259 259 259 260 260 261 262 262 263 263 263 264 264 265 266 267 268 268 269 270 270 271 271 272 272
233 232 231 230 231 231 233 234 235 237 239 240 241 242 242 243 243 244 244 245 246 247 248 249 249 248 248 247 246 244 243 243 244 244 245 245 246 246 246 246 246 247 249 250 252 254 255 256 257 258 259 259 259 259 258 259 259 259 259 260 260 261 261 262 262 263 264 265 265 266 266 266 266 267 267 268 269 269 270 270 271 271 271 272 272 272
234 234 233 232 232 232 233 234 235 236 238 240 241 243 244 244 245 245 246 246 247 248 249 250 250 250 251 251 250 250 249 248 247 247 248 248 247 247 247 247 247 248 249 250 252 253 254 255 256 257 258 259 259 260 260 260 260 260 260 260 260 261 262 262 263 264 264 265 266 266 267 267 268 268 269 269 270 270 270 270 270 270 270 271 271 271
238 237 236 236 235 234 234 235 236 236 237 239 240 242 243 245 245 246 247 247 248 248 249 250 251 251 252 253 253 253 253 253 252 252 251 251 251 250 250 249 249 250 250 251 252 253 254 255 255 256 257 258 258 259 260 260 261 261 261 261 261 262 262 263 263 264 264 265 266 266 267 267 268 268 269 269 269 270 270 270 269 269 270 270 270 270
242 242 241 240 240 239 238 238 238 239 239 240 241 242 243 244 246 247 247 248 249 249 250 250 251 252 252 253 254 254 255 255 255 254 254 255 255 255 255 253 252 252 251 251 252 252 253 254 254 255 256 257 258 258 259 260 261 261 262 262 263 263 263 264 264 264 265 265 266 267 267 268 268 269 269 269 270 270 271 271 271 271 271 271 272 272
Height
10574 10577 10576 10572 10572 10577 10583 10586 10587 10586 10586 10587 10590 10591 10590 10589 10588 10582 10579 10585 10593 10600 10602 10602 10607 10612 10609 10604 10606 10617 10628 10631 10628 10628 10631 10633 10635 10635 10637 10643 10649 10655 10660 10663 10668 10671 10669 10673 10679 10672 10663 10664 10665 10664 10665 10664 10667 10671 10674 10677 10678 10680 10681 10682 10683 10684 10684 10684 10684 10685 10684 10685 10685 10685 10684 10684 10684 10685 10685 10686 10686 10685 10685 10685 10685 10685
10567 10567 10563 10562 10568 10574 10577 10579 10579 10578 10578 10579 10581 10583 10582 10581 10579 10575 10574 10579 10587 10593 10593 10593 10600 10605 10603 10599 10601 10611 10621 10624 10622 10622 10624 10625 10626 10627 10631 10639 10647 10650 10653 10655 10658 10661 10663 10668 10671 10667 10661 10662 10661 10661 10662 10663 10665 10667 10669 10671 10673 10676 10678 10679 10680 10680 10680 10680 10680 10681 10681 10681 10681 10681 10680 10680 10681 10681 10681 10682 10682 10682 10681 10682 10682 10682
10559 10556 10553 10559 10565 10567 10569 10570 10571 10571 10570 10572 10573 10575 10575 10571 10570 10569 10570 10573 10580 10586 10586 10587 10596 10599 10597 10595 10598 10605 10614 10616 10615 10616 10617 10617 10618 10620 10626 10636 10643 10645 10645 10647 10650 10654 10658 10661 10663 10665 10664 10662 10660 10660 10662 10662 10662 10663 10664 10667 10668 10671 10673 10674 10675 10675 10675 10675 10676 10677 10677 10678 10678 10677 10676 10677 10678 10678 10678 10678 10679 10679 10679 10679 10680 10680
10549 10546 10548 10555 10559 10558 10560 10562 10563 10564 10563 10564 10565 10567 10566 10562 10564 10564 10563 10568 10576 10581 10580 10582 10592 10593 10590 10591 10595 10599 10606 10609 10610 10610 10610 10612 10613 10616 10622 10632 10639 10640 10639 10641 10645 10649 10652 10654 10657 10661 10662 10660 10657 10656 10658 10658 10658 10658 10660 10662 10664 10666 10668 10669 10670 10670 10670 10671 10672 10673 10673 10673 10673 10673 10673 10674 10674 10675 10675 10675 10675 10676 10676 10676 10677 10678
10539 10539 10544 10549 10550 10551 10553 10554 10555 10556 10556 10557 10559 10560 10558 10556 10559 10558 10556 10565 10573 10574 10574 10578 10587 10586 10583 10588 10591 10593 10599 10604 10604 10604 10604 10607 10610 10613 10619 10628 10633 10633 10634 10636 10640 10644 10647 10651 10654 10656 10658 10657 10654 10653 10654 10654 10654 10654 10656 10658 10660 10662 10663 10664 10664 10664 10665 10666 10667 10668 10669 10669 10669 10669 10670 10670 10671 10671 10671 10672 10672 10673 10674 10674 10674 10675
10531 10534 10539 10540 10542 10544 10546 10547 10548 10549 10549 10551 10551 10551 10550 10550 10553 10552 10552 10562 10568 10567 10569 10574 10581 10579 10578 10583 10585 10588 10594 10597 10598 10597 10599 10602 10606 10610 10616 10622 10625 10625 10628 10631 10635 10640 10644 10648 10650 10652 10653 10651 10648 10648 10649 10650 10650 10651 10653 10654 10656 10657 10658 10659 10659 10659 10660 10662 10663 10664 10665 10665 10666 10666 10666 10667 10667 10668 10668 10669 10670 10671 10671 10671 10671 10672
10524 10529 10532 10532 10536 10538 10539 10540 10541 10542 10543 10544 10543 10544 10545 10545 10548 10548 10549 10557 10562 10562 10566 10570 10574 10574 10574 10576 10579 10584 10588 10590 10591 10592 10594 10598 10602 10607 10612 10617 10617 10618 10623 10627 10632 10636 10642 10647 10647 10645 10644 10643 10643 10644 10644 10645 10647 10647 10649 10650 10652 10653 10653 10654 10654 10655 10656 10658 10659 10660 10661 10662 10663 10663 10663 10664 10664 10665 10665 10666 10667 10668 10668 10668 10668 10668
10518 10524 10525 10526 10531 10531 10532 10533 10534 10537 10537 10536 10536 10538 10540 10540 10543 10545 10547 10553 10556 10559 10562 10565 10568 10569 10568 10570 10575 10579 10582 10583 10584 10586 10591 10595 10599 10602 10607 10611 10611 10613 10618 10623 10628 10633 10638 10638 10632 10631 10634 10636 10637 10639 10640 10641 10643 10644 10645 10646 10648 10648 10648 10649 10650 10650 10652 10654 10655 10656 10658 10659 10659 10660 10660 10661 10661 10662 10662 10662 10663 10663 10664 10664 10665 10665
10514 10517 10518 10522 10526 10524 10524 10527 10529 10531 10530 10529 10531 10534 10536 10536 10539 10542 10544 10548 10551 10555 10558 10559 10562 10563 10562 10565 10569 10573 10575 10577 10579 10583 10588 10591 10593 10597 10601 10604 10606 10608 10613 10618 10623 10628 10629 10625 10621 10624 10629 10631 10634 10636 10637 10637 10639 10641 10642 10643 10644 10643 10644 10645 10646 10647 10648 10649 10651 10652 10654 10655 10655 10656 10656 10657 10658 10658 10659 10659 10659 10659 10659 10660 10660 10660
10509 10510 10514 10519 10519 10516 10518 10522 10525 10525 10524 10524 10528 10531 10532 10533 10535 10538 10540 10543 10546 10550 10552 10553 10557 10557 10557 10560 10564 10568 10570 10572 10575 10580 10584 10587 10589 10592 10596 10599 10601 10604 10609 10614 10620 10623 10622 10621 10621 10624 10626 10627 10630 10632 10633 10634 10636 10638 10639 10640 10639 10638 10639 10641 10642 10643 10643 10645 10646 10648 10650 10650 10651 10651 10652 10653 10653 10654 10655 10655 10655 10655 10655 10656 10656 10656
10502 10506 10510 10512 10510 10510 10514 10517 10520 10519 10518 10520 10524 10527 10527 10528 10531 10533 10536 10538 10542 10545 10545 10547 10551 10551 10552 10555 10558 10563 10566 10569 10573 10577 10581 10583 10585 10588 10592 10595 10597 10601 10605 10610 10614 10616 10617 10619 10621 10621 10622 10624 10627 10629 10630 10630 10632 10634 10635 10635 10634 10634 10635 10636 10637 10638 10639 10641 10642 10644 10645 10645 10646 10647 10648 10648 10649 10649 10650 10651 10651 10651 10652 10652 10651 10651
10499 10503 10505 10505 10505 10507 10510 10512 10514 10514 10515 10517 10520 10522 10522 10524 10526 10529 10531 10533 10538 10540 10539 10541 10545 10546 10548 10551 10553 10558 10562 10566 10570 10573 10577 10579 10581 10585 10588 10590 10593 10597 10601 10605 10609 10611 10613 10616 10617 10618 10619 10621 10623 10624 10626 10626 10628 10629 10630 10630 10630 10629 10630 10632 10633 10634 10635 10636 10638 10639 10640 10641 10642 10643 10643 10643 10644 10644 10645 10646 10646 10648 10648 10649 10648 10647
10496 10499 10499 10500 10501 10503 10505 10507 10508 10510 10511 10512 10515 10516 10518 10520 10523 10525 10526 10530 10534 10533 10532 10536 10540 10541 10544 10547 10549 10554 10559 10563 10567 10570 10572 10574 10577 10581 10584 10586 10590 10594 10597 10601 10605 10608 10610 10611 10613 10614 10615 10617 10618 10619 10620 10621 10623 10623 10624 10626 10626 10626 10627 10628 10628 10629 10631 10632 10633 10634 10635 10636 10637 10638 10638 10638 10639 10640 10640 10641 10642 10643 10645 10645 10645 10644
10491 10493 10494 10496 10496 10497 10499 10501 10503 10506 10507 10508 10510 10512 10514 10516 10518 10520 10522 10525 10528 10527 10528 10533 10536 10537 10540 10543 10546 10551 10556 10560 10564 10566 10567 10570 10574 10577 10580 10583 10587 10591 10594 10597 10600 10603 10606 10607 10609 10610 10611 10611 10613 10614 10615 10617 10618 10619 10620 10621 10622 10623 10623 10624 10625 10626 10627 10628 10629 10630 10630 10631 10633 10634 10634 10634 10635 10635 10635 10635 10637 10638 10640 10641 10641 10640
10486 10488 10490 10491 10491 10493 10495 10496 10500 10502 10504 10505 10507 10508 10510 10511 10513 10515 10517 10521 10523 10522 10524 10529 10532 10534 10537 10540 10544 10549 10553 10557 10560 10562 10564 10568 10571 10574 10577 10580 10584 10588 10590 10593 10596 10599 10602 10603 10604 10605 10605 10606 10607 10609 10611 10612 10613 10615 10616 10617 10618 10620 10620 10621 10622 10622 10623 10624 10625 10625 10626 10627 10628 10629 10630 10630 10630 10630 10630 10630 10630 10631 10633 10635 10635 10635
10481 10483 10484 10486 10488 10489 10490 10493 10497 10499 10500 10502 10503 10504 10504 10506 10509 10511 10514 10516 10518 10519 10521 10526 10530 10532 10534 10538 10543 10548 10551 10554 10557 10559 10563 10566 10569 10572 10575 10578 10581 10584 10587 10590 10593 10595 10596 10598 10599 10600 10600 10601 10603 10605 10606 10608 10609 10611 10612 10614 10615 10616 10617 10618 10619 10619 10619 10620 10621 10621 10622 10623 10624 10624 10625 10625 10625 10625 10624 10624 10624 10625 10626 10628 10629 10629
10477 10478 10480 10483 10485 10485 10487 10491 10494 10495 10496 10498 10499 10499 10499 10502 10506 10509 10511 10513 10514 10516 10519 10524 10528 10529 10532 10537 10543 10546 10549 10552 10555 10558 10561 10564 10568 10571 10575 10578 10581 10583 10585 10588 10589 10589 10590 10592 10594 10595 10596 10597 10598 10600 10602 10604 10606 10607 10608 10610 10611 10612 10613 10614 10615 10615 10615 10616 10616 10617 10618 10619 10619 10619 10619 10620 10620 10620 10619 10619 10619 10620 10620 10621 10622 10623
10474 10474 10476 10480 10480 10480 10484 10488 10490 10490 10492 10493 10493 10494 10497 10500 10503 10505 10507 10509 10511 10514 10518 10523 10526 10527 10531 10537 10541 10543 10546 10549 10553 10556 10559 10563 10568 10573 10577 10579 10581 10582 10583 10584 10585 10586 10587 10590 10591 10591 10591 10592 10593 10595 10598 10600 10601 10603 10604 10605 10606 10606 10607 10608 10609 10610 10611 10611 10611 10612 10613 10613 10613 10614 10614 10615 10615 10615 10614 10614 10614 10615 10615 10616 10617 10618
10470 10470 10472 10475 10475 10476 10480 10483 10485 10486 10487 10488 10489 10492 10494 10496 10499 10501 10504 10506 10508 10511 10516 10520 10523 10526 10530 10535 10537 10539 10542 10546 10549 10554 10560 10564 10570 10576 10580 10582 10582 10583 10582 10582 10584 10586 10587 10588 10587 10586 10586 10587 10588 10590 10592 10595 10597 10598 10599 10599 10600 10601 10601 10603 10604 10605 10606 10606 10607 10607 10608 10608 10608 10608 10609 10609 10609 10609 10609 10609 10609 10610 10611 10611 10612 10614
10466 10466 10467 10470 10471 10472 10474 10478 10481 10483 10483 10483 10486 10489 10490 10492 10494 10497 10500 10503 10505 10508 10512 10516 10520 10524 10527 10531 10533 10536 10540 10544 10547 10552 10560 10565 10568 10572 10578 10582 10583 10583 10582 10583 10585 10588 10587 10584 10582 10581 10581 10582 10584 10585 10587 10590 10592 10593 10594 10594 10596 10596 10597 10598 10599 10601 10603 10603 10602 10603 10603 10602 10602 10602 10603 10603 10603 10603 10603 10603 10603 10604 10605 10606 10607 10609
10462 10461 10463 10466 10468 10468 10471 10475 10478 10479 10479 10481 10483 10485 10486 10488 10490 10493 10496 10499 10501 10505 10509 10513 10517 10521 10523 10526 10530 10534 10538 10542 10546 10550 10556 10563 10566 10566 10567 10572 10576 10577 10578 10579 10582 10584 10583 10580 10577 10577 10577 10577 10578 10580 10582 10586 10588 10588 10589 10591 10592 10593 10593 10594 10596 10600 10602 10600 10597 10597 10597 10596 10596 10595 10597 10598 10598 10598 10597 10597 10598 10598 10599 10601 10602 10603
10458 10457 10458 10462 10465 10465 10468 10472 10475 10475 10476 10477 10479 10481 10483 10485 10486 10489 10492 10494 10497 10501 10506 10510 10514 10517 10519 10523 10527 10531 10536 10541 10546 10551 10554 10559 10564 10562 10560 10560 10563 10566 10567 10569 10571 10573 10574 10573 10572 10571 10572 10573 10574 10575 10578 10581 10583 10584 10586 10590 10592 10591 10589 10589 10592 10596 10597 10595 10592 10592 10592 10592 10591 10590 10591 10592 10592 10593 10592 10591 10591 10592 10593 10595 10596 10597
10455 10453 10453 10457 10461 10463 10465 10468 10469 10471 10472 10474 10476 10477 10479 10482 10483 10485 10488 10490 10493 10497 10501 10505 10509 10513 10516 10520 10524 10528 10532 10537 10543 10549 10553 10556 10558 10558 10556 10555 10556 10558 10560 10562 10564 10565 10566 10567 10567 10568 10569 10570 10571 10572 10574 10576 10578 10580 10583 10587 10589 10586 10583 10583 10585 10588 10588 10588 10587 10587 10588 10588 10587 10587 10587 10587 10587 10587 10586 10585 10585 10585 10586 10588 10590 10591
10451 10449 10448 10451 10456 10459 10462 10463 10464 10466 10469 10470 10472 10474 10476 10478 10480 10482 10484 10487 10490 10494 10498 10502 10506 10509 10512 10515 10519 10524 10528 10533 10538 10544 10549 10553 10554 10553 10552 10551 10552 10554 10556 10558 10559 10560 10561 10562 10565 10567 10567 10566 10567 10568 10570 10572 10574 10575 10576 10578 10580 10579 10578 10577 10579 10581 10582 10582 10583 10583 10584 10583 10582 10582 10583 10583 10583 10583 10582 10580 10580 10580 10580 10582 10584 10585
10445 10444 10443 10445 10451 10456 10458 10459 10460 10462 10464 10466 10468 10470 10472 10474 10477 10479 10481 10484 10487 10491 10495 10499 10503 10505 10508 10511 10516 10521 10525 10530 10534 10539 10543 10546 10548 10548 10546 10546 10548 10549 10551 10552 10553 10555 10557 10560 10563 10565 10564 10563 10564 10565 10566 10567 10569 10570 10571 10573 10576 10577 10577 10576 10577 10578 10579 10578 10579 10580 10579 10577 10576 10577 10577 10578 10577 10578 10578 10577 10576 10574 10573 10575 10577 10579
10438 10439 10439 10440 10446 10451 10454 10455 10456 10457 10460 10463 10465 10466 10468 10470 10473 10476 10478 10480 10483 10487 10491 10495 10499 10501 10504 10509 10513 10518 10523 10526 10527 10529 10533 10539 10543 10544 10541 10541 10542 10544 10546 10547 10548 10550 10553 10556 10560 10561 10559 10559 10560 10561 10562 10563 10565 10568 10569 10570 10572 10573 10573 10574 10575 10575 10575 10576 10577 10577 10575 10572 10571 10572 10573 10573 10573 10574 10574 10573 10572 10570 10569 10570 10571 10572
10433 10436 10436 10436 10440 10446 10450 10451 10452 10453 10456 10460 10461 10463 10464 10466 10469 10471 10474 10476 10479 10483 10487 10491 10494 10496 10500 10505 10509 10514 10518 10520 10520 10522 10525 10530 10534 10535 10533 10534 10536 10539 10541 10542 10543 10545 10547 10550 10552 10552 10552 10554 10555 10557 10557 10559 10561 10564 10565 10566 10568 10568 10569 10573 10574 10571 10571 10573 10574 10573 10571 10568 10568 10569 10569 10569 10569 10570 10570 10569 10568 10567 10566 10566 10566 10565
10429 10432 10433 10432 10435 10441 10445 10448 10449 10450 10453 10456 10458 10459 10461 10463 10465 10467 10470 10473 10475 10478 10482 10485 10488 10491 10496 10501 10505 10509 10512 10514 10515 10516 10519 10521 10523 10524 10525 10527 10531 10534 10535 10536 10537 10539 10541 10543 10545 10546 10547 10549 10550 10551 10552 10554 10557 10559 10560 10561 10563 10563 10565 10568 10569 10565 10564 10566 10567 10567 10567 10565 10564 10566 10566 10564 10565 10565 10564 10565 10564 10563 10562 10562 10561 10560
10425 10427 10429 10429 10431 10435 10440 10443 10445 10446 10448 10451 10453 10455 10457 10459 10461 10463 10465 10468 10471 10474 10477 10480 10483 10487 10492 10497 10501 10503 10506 10508 10509 10511 10513 10514 10516 10518 10520 10523 10525 10527 10528 10530 10531 10533 10534 10537 10539 10540 10541 10543 10545 10546 10547 10549 10551 10553 10554 10556 10557 10558 10559 10560 10559 10558 10557 10559 10560 10562 10563 10561 10560 10562 10562 10560 10560 10559 10559 10559 10559 10558 10558 10557 10557 10556
10419 10423 10425 10426 10427 10430 10434 10438 10440 10442 10443 10445 10447 10450 10453 10455 10456 10458 10461 10463 10466 10469 10472 10475 10479 10483 10487 10492 10496 10499 10501 10502 10503 10505 10507 10508 10511 10514 10516 10519 10520 10522 10523 10525 10526 10528 10529 10532 10534 10535 10536 10538 10539 10540 10542 10544 10546 10547 10548 10550 10551 10552 10553 10552 10552 10553 10553 10553 10555 10556 10557 10557 10557 10557 10557 10556 10555 10554 10553 10552 10552 10552 10553 10552 10552 10551
10414 10418 10420 10422 10423 10425 10428 10431 10435 10437 10438 10440 10442 10445 10447 10449 10451 10454 10456 10458 10462 10465 10468 10471 10475 10478 10482 10485 10490 10493 10495 10496 10497 10499 10502 10505 10507 10510 10512 10514 10516 10517 10518 10520 10521 10523 10524 10526 10527 10528 10530 10531 10533 10534 10536 10538 10540 10541 10541 10542 10544 10544 10545 10545 10546 10546 10546 10547 10548 10550 10551 10553 10554 10553 10551 10549 10548 10547 10546 10545 10545 10546 10548 10547 10546 10546
10409 10412 10415 10416 10418 10420 10421 10425 10429 10432 10434 10436 10438 10440 10442 10445 10447 10449 10452 10455 10457 10460 10463 10467 10470 10473 10476 10479 10483 10486 10488 10490 10493 10495 10498 10501 10502 10505 10507 10509 10511 10512 10513 10515 10516 10517 10518 10519 10520 10521 10522 10524 10525 10527 10529 10531 10533 10534 10534 10535 10536 10537 10538 10539 10540 10540 10540 10541 10542 10543 10546 10547 10548 10547 10545 10543 10543 10542 10542 10540 10539 10539 10541 10541 10541 10542
10403 10406 10408 10411 10413 10415 10416 10419 10423 10426 10429 10431 10434 10435 10437 10440 10442 10445 10448 10450 10453 10455 10458 10461 10463 10466 10469 10472 10476 10480 10482 10484 10487 10490 10493 10495 10497 10500 10502 10504 10506 10506 10507 10508 10509 10510 10511 10512 10512 10513 10515 10517 10519 10521 10522 10524 10525 10526 10528 10528 10530 10531 10531 10532 10533 10533 10534 10536 10536 10537 10539 10539 10540 10540 10539 10538 10538 10537 10537 10536 10535 10534 10535 10536 10537 10537
10397 10399 10402 10404 10406 10409 10410 10413 10417 10420 10423 10427 10429 10431 10432 10435 10438 10440 10442 10445 10448 10450 10453 10456 10458 10461 10464 10467 10471 10474 10476 10478 10481 10483 10486 10489 10491 10494 10497 10499 10501 10501 10499 10499 10501 10502 10504 10504 10504 10506 10509 10510 10512 10514 10515 10517 10518 10518 10520 10521 10523 10524 10525 10526 10526 10526 10528 10529 10530 10531 10532 10532 10533 10532 10532 10532 10532 10531 10530 10530 10529 10529 10529 10530 10531 10530
10391 10394 10396 10398 10401 10403 10405 10408 10411 10414 10418 10422 10424 10425 10427 10430 10432 10434 10437 10440 10443 10445 10448 10451 10453 10456 10459 10463 10466 10469 10472 10474 10477 10479 10481 10483 10485 10489 10493 10494 10494 10493 10491 10490 10493 10496 10497 10498 10499 10501 10504 10505 10506 10507 10509 10509 10510 10511 10513 10515 10517 10517 10518 10519 10519 10520 10520 10521 10522 10523 10524 10524 10525 10525 10524 10524 10524 10523 10523 10522 10523 10523 10523 10523 10523 10523
10385 10388 10390 10392 10395 10398 10401 10404 10406 10408 10413 10416 10417 10419 10421 10423 10425 10428 10431 10434 10437 10439 10442 10445 10448 10451 10454 10458 10461 10464 10467 10470 10472 10473 10474 10476 10479 10484 10486 10485 10484 10484 10484 10483 10486 10489 10491 10493 10495 10497 10499 10500 10500 10501 10502 10502 10502 10505 10509 10510 10509 10509 10510 10511 10512 10512 10513 10513 10514 10515 10516 10516 10516 10517 10517 10517 10516 10516 10516 10516 10516 10516 10516 10516 10516 10515
10379 10382 10384 10387 10389 10392 10397 10399 10400 10403 10407 10409 10410 10411 10414 10417 10420 10423 10425 10427 10430 10433 10437 10440 10443 10446 10449 10452 10455 10457 10461 10463 10465 10467 10468 10471 10473 10475 10477 10476 10474 10475 10476 10476 10479 10483 10486 10488 10490 10492 10493 10494 10494 10495 10496 10496 10495 10499 10504 10505 10502 10501 10503 10504 10505 10506 10505 10505 10505 10506 10508 10508 10508 10509 10509 10510 10510 10509 10509 10509 10508 10509 10509 10509 10508 10507
10372 10376 10378 10380 10382 10386 10390 10393 10395 10398 10400 10401 10402 10405 10409 10413 10414 10414 10417 10421 10424 10428 10431 10435 10437 10439 10442 10446 10448 10451 10454 10457 10459 10460 10462 10465 10465 10466 10466 10466 10464 10464 10466 10468 10472 10477 10480 10482 10484 10485 10486 10487 10488 10488 10489 10490 10489 10492 10497 10498 10495 10494 10495 10496 10498 10498 10496 10495 10497 10499 10501 10500 10500 10501 10502 10503 10503 10503 10502 10501 10501 10501 10501 10500 10500 10499
10366 10370 10372 10374 10376 10380 10384 10387 10389 10391 10393 10394 10396 10400 10405 10408 10406 10407 10412 10417 10419 10422 10425 10428 10431 10432 10435 10440 10442 10444 10447 10449 10451 10453 10455 10457 10457 10457 10457 10456 10455 10454 10457 10462 10467 10471 10472 10474 10476 10477 10479 10481 10482 10482 10483 10484 10485 10486 10488 10489 10489 10488 10487 10487 10490 10490 10487 10486 10489 10492 10492 10492 10492 10493 10494 10494 10494 10494 10493 10493 10492 10492 10491 10491 10490 10489
10361 10364 10366 10368 10371 10373 10377 10380 10383 10385 10387 10388 10390 10394 10399 10401 10400 10402 10407 10411 10413 10417 10420 10422 10424 10427 10429 10432 10435 10437 10439 10441 10443 10446 10447 10448 10449 10450 10450 10449 10448 10447 10449 10455 10461 10464 10465 10467 10469 10471 10472 10474 10475 10476 10477 10477 10478 10478 10479 10480 10480 10480 10480 10480 10481 10481 10479 10479 10480 10482 10483 10483 10483 10484 10485 10485 10484 10484 10483 10483 10482 10482 10482 10481 10481 10481
10354 10358 10360 10362 10364 10367 10370 10373 10376 10379 10381 10382 10383 10386 10390 10394 10396 10397 10400 10403 10406 10411 10414 10416 10418 10420 10422 10425 10428 10430 10432 10434 10436 10437 10438 10440 10442 10444 10444 10442 10441 10441 10442 10446 10453 10457 10459 10462 10463 10464 10465 10466 10467 10469 10469 10469 10469 10469 10470 10470 10470 10471 10472 10472 10472 10472 10472 10472 10473 10473 10474 10474 10473 10473 10474 10474 10474 10474 10473 10473 10473 10473 10473 10473 10472 10472
10347 10350 10353 10355 10357 10360 10363 10366 10369 10372 10374 10376 10377 10378 10381 10385 10388 10390 10393 10396 10400 10404 10407 10410 10412 10413 10415 10417 10420 10421 10423 10426 10428 10429 10432 10434 10435 10436 10437 10436 10436 10436 10436 10439 10444 10448 10451 10454 10455 10456 10457 10457 10458 10459 10459 10459 10459 10459 10460 10461 10461 10462 10463 10464 10465 10466 10466 10467 10466 10466 10465 10464 10464 10463 10463 10463 10464 10465 10464 10464 10464 10464 10463 10462 10462 10461
10339 10343 10346 10348 10350 10353 10356 10358 10361 10365 10367 10369 10370 10372 10374 10376 10379 10382 10386 10390 10393 10396 10398 10402 10404 10407 10409 10411 10412 10413 10413 10415 10419 10421 10424 10427 10428 10429 10429 10429 10429 10430 10430 10431 10434 10437 10441 10444 10446 10447 10447 10448 10448 10449 10449 10450 10450 10451 10452 10453 10454 10455 10456 10457 10458 10459 10460 10460 10459 10458 10457 10455 10455 10455 10455 10455 10455 10455 10454 10454 10454 10453 10452 10451 10450 10449
10334 10337 10340 10342 10344 10347 10349 10352 10354 10357 10359 10361 10364 10366 10367 10369 10371 10374 10376 10379 10383 10386 10389 10392 10395 10399 10401 10403 10404 10404 10402 10404 10409 10414 10416 10418 10420 10421 10421 10421 10422 10423 10424 10425 10426 10428 10431 10433 10435 10436 10437 10438 10439 10440 10441 10442 10442 10443 10445 10446 10447 10449 10449 10450 10451 10451 10451 10450 10449 10449 10448 10447 10447 10447 10446 10446 10445 10444 10443 10443 10442 10441 10441 10440 10438 10437
10330 10332 10335 10337 10339 10341 10343 10346 10348 10350 10352 10354 10356 10359 10360 10362 10364 10366 10367 10369 10372 10376 10379 10382 10385 10388 10392 10394 10396 10395 10392 10395 10402 10408 10409 10409 10410 10410 10411 10413 10414 10416 10417 10418 10419 10420 10422 10423 10424 10425 10426 10428 10430 10431 10432 10433 10433 10434 10435 10436 10438 10439 10441 10441 10442 10441 10440 10439 10439 10439 10439 10438 10438 10437 10436 10435 10434 10434 10433 10432 10431 10430 10429 10428 10428 10427
10324 10327 10329 10331 10333 10335 10337 10339 10341 10343 10345 10346 10349 10351 10353 10354 10356 10357 10359 10360 10362 10365 10368 10371 10374 10377 10380 10384 10386 10386 10386 10389 10394 10397 10398 10398 10399 10401 10403 10405 10407 10408 10409 10410 10410 10411 10413 10414 10414 10415 10416 10417 10419 10421 10421 10422 10423 10424 10424 10425 10427 10428 10429 10429 10428 10427 10427 10427 10427 10427 10427 10426 10426 10425 10424 10424 10423 10423 10422 10421 10421 10420 10419 10418 10417 10416
10318 10321 10324 10325 10327 10329 10331 10333 10335 10336 10338 10339 10341 10343 10344 10346 10347 10349 10350 10352 10353 10355 10357 10360 10363 10366 10369 10371 10374 10377 10378 10380 10382 10384 10386 10388 10391 10394 10396 10398 10400 10401 10401 10401 10401 10402 10403 10405 10405 10406 10407 10408 10409 10410 10411 10411 10412 10413 10414 10415 10416 10417 10416 10415 10414 10414 10415 10415 10415 10414 10413 10413 10413 10412 10412 10411 10411 10410 10410 10409 10409 10408 10407 10406 10406 10406
10313 10316 10318 10319 10320 10322 10324 10326 10328 10329 10330 10331 10333 10334 10336 10337 10339 10340 10342 10344 10345 10346 10348 10350 10353 10355 10357 10359 10362 10365 10367 10368 10370 10373 10376 10379 10382 10384 10386 10388 10390 10392 10392 10392 10393 10394 10395 10396 10397 10398 10399 10399 10399 10400 10401 10401 10402 10402 10403 10404 10405 10404 10403 10402 10402 10403 10403 10402 10402 10401 10401 10400 10400 10400 10399 10399 10398 10398 10398 10397 10397 10397 10395 10394 10394 10394
10307 10309 10310 10311 10312 10314 10315 10317 10319 10321 10321 10322 10323 10325 10327 10329 10330 10332 10333 10335 10337 10338 10339 10340 10342 10344 10346 10348 10350 10353 10355 10358 10362 10366 10368 10369 10370 10372 10374 10377 10380 10382 10383 10383 10384 10385 10386 10387 10389 10390 10390 10390 10389 10390 10390 10391 10391 10392 10393 10394 10393 10392 10392 10392 10391 10391 10391 10391 10390 10390 10389 10388 10388 10388 10387 10386 10386 10385 10385 10385 10385 10384 10383 10381 10381 10381
10302 10302 10303 10304 10305 10306 10308 10309 10310 10311 10312 10313 10314 10316 10317 10319 10321 10322 10323 10325 10327 10328 10329 10330 10332 10334 10336 10338 10340 10342 10345 10348 10353 10356 10356 10355 10356 10359 10362 10366 10369 10371 10372 10372 10373 10374 10376 10377 10379 10380 10380 10379 10379 10379 10379 10380 10381 10382 10383 10383 10382 10381 10381 10381 10381 10381 10380 10380 10379 10378 10378 10377 10376 10375 10374 10374 10373 10372 10372 10371 10371 10370 10370 10368 10367 10366
10296 10296 10297 10298 10299 10300 10301 10302 10302 10303 10303 10304 10305 10307 10308 10309 10310 10311 10313 10314 10316 10317 10318 10320 10322 10324 10326 10327 10329 10331 10334 10336 10340 10343 10344 10344 10345 10347 10349 10352 10355 10357 10359 10360 10361 10362 10364 10366 10368 10369 10369 10369 10368 10368 10369 10370 10371 10372 10371 10370 10370 10370 10370 10369 10369 10369 10369 10368 10367 10366 10365 10364 10363 10362 10362 10361 10360 10359 10358 10356 10355 10355 10356 10356 10354 10351